EW9523 Weather Reports


Display with metric or nautical units.
time (UTC)temp
F
wind
direction
speed
MPH
gust
MPH
rain 1hr
in
rain 24hr
in
rain mn
in
humidity
%
barometer
mb
20260504080204 56 127 0.0 4.0 0.00 0.00 0.00 83 1013.0
20260504050507 57 331 2.0 6.0 0.00 0.00 0.00 76 1012.7
20260504045026 57 336 2.0 6.0 0.00 0.00 0.00 76 1012.7
20260504044024 57 291 0.0 4.0 0.00 0.00 0.00 77 1012.7
20260504043018 58 345 2.0 4.0 0.00 0.00 0.00 76 1012.5
20260504042011 58 336 1.0 4.0 0.00 0.00 0.00 75 1012.4
20260504041010 58 337 0.0 3.0 0.00 0.00 0.00 75 1012.3
20260504040003 58 313 1.0 3.0 0.00 0.00 0.00 75 1012.2
20260504034950 58 267 1.0 4.0 0.00 0.00 0.00 75 1012.1
20260504033947 58 340 2.0 5.0 0.00 0.00 0.00 74 1012.0
20260504032947 58 292 1.0 2.0 0.00 0.00 0.00 75 1011.9
20260504031935 58 277 1.0 5.0 0.00 0.00 0.00 74 1011.7
20260504030935 58 257 0.0 2.0 0.00 0.00 0.00 75 1011.5
20260504025933 59 267 1.0 4.0 0.00 0.00 0.00 74 1011.6
20260504024930 59 250 3.0 7.0 0.00 0.00 0.00 73 1011.5
20260504023930 59 274 3.0 6.0 0.00 0.00 0.00 73 1011.5
20260504022929 59 276 3.0 7.0 0.00 0.00 0.00 72 1011.5
20260504021927 59 283 3.0 6.0 0.00 0.00 0.00 72 1011.3
20260504020927 59 303 2.0 5.0 0.00 0.00 0.00 72 1011.5
20260504015927 60 268 2.0 5.0 0.00 0.00 0.00 72 1011.6
20260504014926 60 268 2.0 5.0 0.00 0.00 0.00 73 1011.4
20260504013927 60 232 2.0 6.0 0.00 0.00 0.00 73 1011.5
20260504012927 60 281 3.0 6.0 0.00 0.00 0.00 72 1011.6
20260504012404 60 271 3.0 9.0 0.00 0.00 0.00 72 1011.3
20260504010908 61 252 2.0 6.0 0.00 0.00 0.00 71 1011.4
20260504005858 61 237 2.0 7.0 0.00 0.00 0.00 71 1011.3
20260504004858 62 248 2.0 9.0 0.00 0.00 0.00 71 1011.4
20260504003859 62 232 3.0 6.0 0.00 0.00 0.00 70 1011.3
20260504002859 62 172 4.0 10.0 0.00 0.00 0.00 71 1011.3
20260504001859 62 215 5.0 11.0 0.00 0.00 0.00 70 1011.3
20260504000859 63 254 4.0 9.0 0.00 0.00 0.00 69 1011.2
20260503235859 64 260 4.0 12.0 0.00 0.00 0.00 68 1011.1
20260503234859 64 99 4.0 13.0 0.00 0.00 0.00 66 1010.8
20260503233900 65 131 3.0 11.0 0.00 0.00 0.00 66 1010.7
20260503233809 65 140 4.0 12.0 0.00 0.00 0.00 67 1010.7
20260503231853 65 103 4.0 13.0 0.00 0.00 0.00 66 1010.6
20260503230853 66 142 3.0 12.0 0.00 0.00 0.00 63 1010.6
20260503225853 66 180 1.0 5.0 0.00 0.00 0.00 66 1010.6
20260503224853 65 184 3.0 9.0 0.00 0.00 0.00 66 1010.7
20260503223852 65 44 2.0 9.0 0.00 0.00 0.00 66 1010.7
20260503222853 65 115 2.0 9.0 0.00 0.00 0.00 69 1010.9
20260503222243 63 106 3.0 8.0 0.00 0.00 0.00 69 1011.0
20260503221911 64 121 3.0 6.0 0.00 0.00 0.00 71 1010.9
20260503215837 63 142 2.0 6.0 0.00 0.00 0.00 70 1011.0
20260503214836 63 98 2.0 6.0 0.00 0.00 0.00 71 1011.1
20260503213837 62 277 2.0 6.0 0.00 0.00 0.00 73 1011.1
20260503212834 62 100 2.0 8.0 0.00 0.00 0.00 73 1011.1
20260503211834 61 146 2.0 7.0 0.00 0.00 0.00 74 1011.2
20260503211311 60 67 4.0 9.0 0.00 0.00 0.00 74 1011.1
20260503205834 60 105 3.0 6.0 0.00 0.00 0.00 74 1011.2
20260503204823 60 100 3.0 6.0 0.00 0.00 0.00 74 1011.3
20260503203823 60 109 3.0 7.0 0.00 0.00 0.00 76 1011.4
20260503202821 59 140 3.0 9.0 0.00 0.00 0.00 77 1011.5
20260503201819 59 93 3.0 8.0 0.00 0.00 0.00 77 1011.6
20260503200819 58 88 3.0 7.0 0.00 0.00 0.00 78 1011.7
20260503195806 58 117 4.0 11.0 0.00 0.00 0.00 78 1011.7
20260503194804 58 92 3.0 7.0 0.00 0.00 0.00 79 1011.7
20260503193805 58 91 3.0 10.0 0.00 0.00 0.00 81 1011.8
20260503192803 58 129 3.0 7.0 0.00 0.00 0.00 80 1011.7
20260503191803 57 81 4.0 7.0 0.00 0.00 0.00 81 1011.8
20260503190752 57 129 2.0 6.0 0.00 0.00 0.00 81 1011.8
20260503185750 57 107 2.0 7.0 0.00 0.00 0.00 83 1011.7
20260503184749 56 61 3.0 6.0 0.00 0.00 0.00 84 1011.7
20260503183746 56 71 3.0 7.0 0.00 0.00 0.00 83 1011.7
20260503182747 56 123 3.0 7.0 0.00 0.00 0.00 83 1011.7
20260503181745 57 148 2.0 5.0 0.00 0.00 0.00 83 1011.7
20260503180743 56 96 2.0 7.0 0.00 0.00 0.00 83 1011.6
20260503175742 56 110 2.0 6.0 0.00 0.00 0.00 85 1011.6
20260503174743 56 124 3.0 6.0 0.00 0.00 0.00 85 1011.6
20260503173742 56 136 3.0 7.0 0.00 0.00 0.00 85 1011.6
20260503172734 56 96 1.0 6.0 0.00 0.00 0.00 86 1011.5
20260503171734 55 195 2.0 9.0 0.00 0.00 0.00 88 1011.5
20260503170735 55 155 2.0 7.0 0.00 0.00 0.00 88 1011.5
20260503160159 54 115 2.0 5.0 0.00 0.00 0.00 92 1011.0
20260503150711 53 157 1.0 4.0 0.00 0.00 0.00 92 1010.7
20260503130624 53 136 1.0 4.0 0.00 0.00 0.00 93 1009.4
20260503110532 53 137 1.0 3.0 0.00 0.00 0.00 92 1009.2
20260503090508 54 132 1.0 4.0 0.00 0.00 0.00 88 1009.7
20260503081452 54 122 0.0 2.0 0.00 0.00 0.00 87 1009.9